SHT8B EGLL-EGPH

Flight info

Callsign SHT8B
Flight time 0h 54m
Altitude 32000
Route ULTIB T420 TNT UN57 POL UN601 RIBEL DCT INPIP
Aircraft A321/M-SDE3FGHIRWY/LB1

Departure

Time 2026-05-07 17:19
Airport London Heathrow Airport (EGLL)

Arrival

Time 2026-05-07 18:14
Airport Edinburgh Airport (EGPH)
Time Latitude Longitude Altitude Speed Heading
2026-05-07 16:43 51.47188 -0.48593 86 ft 0 kts 269°
2026-05-07 17:10 51.47188 -0.48591 86 ft 2 kts 269°
2026-05-07 17:10 51.47188 -0.48551 86 ft 4 kts 269°
2026-05-07 17:10 51.47188 -0.48517 86 ft 4 kts 264°
2026-05-07 17:11 51.47196 -0.48481 89 ft 4 kts 214°
2026-05-07 17:11 51.47218 -0.48473 87 ft 4 kts 179°
2026-05-07 17:11 51.47231 -0.48473 86 ft 0 kts 179°
2026-05-07 17:14 51.47229 -0.48473 86 ft 1 kts 179°
2026-05-07 17:15 51.47220 -0.48473 87 ft 2 kts 179°
2026-05-07 17:15 51.47204 -0.48473 88 ft 3 kts 179°
2026-05-07 17:15 51.47181 -0.48472 87 ft 4 kts 179°
2026-05-07 17:15 51.47149 -0.48472 86 ft 5 kts 179°
2026-05-07 17:16 51.47110 -0.48472 88 ft 6 kts 179°
2026-05-07 17:16 51.47064 -0.48471 87 ft 7 kts 179°
2026-05-07 17:16 51.47011 -0.48471 89 ft 8 kts 179°
2026-05-07 17:16 51.46952 -0.48470 87 ft 9 kts 179°
2026-05-07 17:17 51.46886 -0.48469 88 ft 10 kts 179°
2026-05-07 17:17 51.46814 -0.48469 86 ft 11 kts 179°
2026-05-07 17:17 51.46737 -0.48468 86 ft 12 kts 179°
2026-05-07 17:17 51.46653 -0.48467 86 ft 12 kts 179°
2026-05-07 17:18 51.46565 -0.48466 86 ft 13 kts 179°
2026-05-07 17:18 51.46485 -0.48438 87 ft 10 kts 114°
2026-05-07 17:18 51.46482 -0.48322 88 ft 11 kts 90°
2026-05-07 17:18 51.46478 -0.47906 88 ft 73 kts 90°
2026-05-07 17:19 51.46481 -0.46736 89 ft 134 kts 90°
2026-05-07 17:19 51.46480 -0.44957 92 ft 182 kts 95°
2026-05-07 17:19 51.46454 -0.42823 422 ft 197 kts 93°
2026-05-07 17:19 51.46674 -0.40648 1088 ft 201 kts 66°
2026-05-07 17:20 51.47514 -0.38851 1562 ft 212 kts 48°
2026-05-07 17:20 51.48526 -0.37008 1801 ft 227 kts 50°
2026-05-07 17:20 51.49606 -0.34989 1960 ft 250 kts 50°
2026-05-07 17:20 51.50760 -0.32800 2488 ft 261 kts 50°
2026-05-07 17:21 51.51924 -0.30538 3219 ft 264 kts 54°
2026-05-07 17:21 51.52746 -0.27902 3956 ft 265 kts 72°
2026-05-07 17:21 51.53488 -0.25197 4699 ft 268 kts 54°
2026-05-07 17:21 51.54853 -0.23176 5389 ft 270 kts 28°
2026-05-07 17:22 51.56655 -0.22328 5883 ft 274 kts
2026-05-07 17:22 51.58556 -0.22538 6016 ft 273 kts 351°
2026-05-07 17:22 51.60429 -0.23065 6033 ft 274 kts 347°
2026-05-07 17:22 51.62213 -0.24117 6146 ft 275 kts 329°
2026-05-07 17:23 51.63823 -0.25795 6891 ft 276 kts 326°
2026-05-07 17:23 51.65459 -0.27448 7577 ft 279 kts 328°
2026-05-07 17:23 51.67135 -0.29060 8242 ft 282 kts 328°
2026-05-07 17:23 51.68818 -0.30656 8887 ft 286 kts 328°
2026-05-07 17:24 51.70548 -0.32296 9532 ft 290 kts 328°
2026-05-07 17:24 51.72294 -0.33961 10152 ft 294 kts 328°
2026-05-07 17:24 51.74100 -0.35695 10388 ft 312 kts 328°
2026-05-07 17:24 51.76022 -0.37554 10510 ft 331 kts 327°
2026-05-07 17:25 51.78053 -0.39525 10717 ft 346 kts 328°
2026-05-07 17:25 51.80133 -0.41542 11195 ft 351 kts 328°
2026-05-07 17:25 51.82237 -0.43583 11741 ft 354 kts 328°
2026-05-07 17:25 51.84360 -0.45639 12284 ft 358 kts 328°
2026-05-07 17:26 51.86510 -0.47714 12842 ft 361 kts 328°
2026-05-07 17:26 51.88676 -0.49809 13375 ft 365 kts 328°
2026-05-07 17:26 51.90864 -0.51936 13891 ft 369 kts 328°
2026-05-07 17:26 51.93066 -0.54082 14022 ft 369 kts 327°
2026-05-07 17:27 51.95239 -0.56200 14053 ft 369 kts 327°
2026-05-07 17:27 51.97439 -0.58347 14052 ft 369 kts 327°
2026-05-07 17:27 51.99640 -0.60502 14048 ft 369 kts 327°
2026-05-07 17:27 52.01838 -0.62657 14046 ft 369 kts 327°
2026-05-07 17:28 52.04047 -0.64827 14444 ft 372 kts 327°
2026-05-07 17:28 52.06266 -0.67008 15017 ft 373 kts 327°
2026-05-07 17:28 52.08495 -0.69199 15549 ft 375 kts 327°
2026-05-07 17:28 52.10732 -0.71396 16083 ft 377 kts 327°
2026-05-07 17:29 52.12983 -0.73608 16608 ft 379 kts 327°
2026-05-07 17:29 52.15250 -0.75838 17124 ft 381 kts 327°
2026-05-07 17:29 52.17517 -0.78074 17632 ft 383 kts 327°
2026-05-07 17:29 52.19807 -0.80343 18128 ft 385 kts 327°
2026-05-07 17:30 52.22104 -0.82623 18588 ft 387 kts 327°
2026-05-07 17:30 52.24412 -0.84916 19012 ft 389 kts 327°
2026-05-07 17:30 52.26733 -0.87220 19436 ft 391 kts 327°
2026-05-07 17:30 52.29066 -0.89534 19852 ft 393 kts 327°
2026-05-07 17:31 52.31415 -0.91865 20240 ft 396 kts 327°
2026-05-07 17:31 52.33746 -0.94183 20643 ft 398 kts 327°
2026-05-07 17:31 52.36116 -0.96543 21055 ft 400 kts 327°
2026-05-07 17:31 52.38504 -0.98927 21447 ft 402 kts 326°
2026-05-07 17:32 52.40898 -1.01324 21855 ft 404 kts 326°
2026-05-07 17:32 52.43306 -1.03744 22239 ft 406 kts 326°
2026-05-07 17:32 52.45726 -1.06177 22627 ft 408 kts 326°
2026-05-07 17:32 52.47333 -1.07790 22881 ft 410 kts 326°
2026-05-07 17:33 52.50604 -1.11065 23400 ft 413 kts 326°
2026-05-07 17:33 52.53061 -1.13532 23744 ft 415 kts 326°
2026-05-07 17:33 52.55530 -1.16017 24031 ft 418 kts 326°
2026-05-07 17:33 52.57982 -1.18493 24332 ft 420 kts 326°
2026-05-07 17:34 52.60479 -1.21014 24637 ft 422 kts 326°
2026-05-07 17:34 52.62987 -1.23545 24943 ft 424 kts 326°
2026-05-07 17:34 52.65511 -1.26096 25247 ft 426 kts 326°
2026-05-07 17:34 52.68050 -1.28672 25547 ft 429 kts 326°
2026-05-07 17:35 52.70593 -1.31259 25846 ft 431 kts 326°
2026-05-07 17:35 52.73156 -1.33868 26144 ft 433 kts 326°
2026-05-07 17:35 52.75724 -1.36484 26469 ft 435 kts 327°
2026-05-07 17:35 52.78318 -1.39126 26693 ft 439 kts 327°
2026-05-07 17:36 52.80895 -1.41757 26924 ft 442 kts 327°
2026-05-07 17:36 52.83513 -1.44437 27197 ft 444 kts 327°
2026-05-07 17:36 52.86147 -1.47136 27475 ft 447 kts 327°
2026-05-07 17:36 52.88799 -1.49859 27754 ft 449 kts 327°
2026-05-07 17:37 52.91457 -1.52594 28041 ft 451 kts 327°
2026-05-07 17:37 52.94126 -1.55341 28344 ft 452 kts 327°
2026-05-07 17:37 52.96808 -1.58105 28624 ft 454 kts 327°
2026-05-07 17:37 52.99497 -1.60876 28893 ft 456 kts 327°
2026-05-07 17:38 53.02199 -1.63670 29105 ft 460 kts 327°
2026-05-07 17:38 53.04951 -1.66409 29288 ft 463 kts 332°
2026-05-07 17:38 53.07909 -1.68556 29510 ft 466 kts 339°
2026-05-07 17:38 53.10955 -1.70433 29732 ft 468 kts 339°
2026-05-07 17:39 53.14018 -1.72322 29957 ft 470 kts 339°
2026-05-07 17:39 53.17084 -1.74217 30170 ft 471 kts 339°
2026-05-07 17:39 53.20124 -1.76106 30390 ft 471 kts 339°
2026-05-07 17:39 53.23190 -1.78016 30659 ft 471 kts 339°
2026-05-07 17:40 53.26256 -1.79928 30890 ft 471 kts 339°
2026-05-07 17:40 53.29331 -1.81851 31084 ft 472 kts 339°
2026-05-07 17:40 53.32408 -1.83779 31322 ft 472 kts 339°
2026-05-07 17:40 53.35491 -1.85712 31544 ft 472 kts 339°
2026-05-07 17:41 53.38567 -1.87644 31804 ft 472 kts 339°
2026-05-07 17:41 53.41643 -1.89580 31988 ft 472 kts 339°
2026-05-07 17:41 53.47685 -1.93385 32021 ft 459 kts 339°
2026-05-07 17:42 53.53609 -1.97121 32028 ft 457 kts 339°
2026-05-07 17:42 53.59567 -2.00890 32012 ft 457 kts 339°
2026-05-07 17:43 53.65525 -2.04672 32027 ft 457 kts 339°
2026-05-07 17:43 53.71472 -2.08449 32033 ft 457 kts 339°
2026-05-07 17:44 53.77320 -2.12219 32015 ft 457 kts 338°
2026-05-07 17:44 53.83224 -2.16249 32009 ft 458 kts 337°
2026-05-07 17:45 53.89119 -2.20353 32010 ft 458 kts 337°
2026-05-07 17:45 53.95024 -2.24431 32011 ft 458 kts 337°
2026-05-07 17:46 54.00899 -2.28465 32007 ft 459 kts 337°
2026-05-07 17:46 54.06823 -2.32538 31997 ft 460 kts 337°
2026-05-07 17:47 54.12753 -2.36641 31998 ft 461 kts 337°
2026-05-07 17:47 54.17734 -2.40110 32001 ft 461 kts 337°
2026-05-07 17:48 54.23675 -2.44253 32008 ft 461 kts 337°
2026-05-07 17:48 54.29583 -2.48378 31995 ft 462 kts 337°
2026-05-07 17:49 54.35544 -2.52552 31995 ft 463 kts 337°
2026-05-07 17:49 54.38494 -2.54619 31959 ft 452 kts 337°
2026-05-07 17:49 54.41376 -2.56643 31640 ft 443 kts 337°
2026-05-07 17:50 54.44212 -2.58638 31216 ft 438 kts 337°
2026-05-07 17:50 54.47022 -2.60620 30767 ft 434 kts 336°
2026-05-07 17:50 54.49805 -2.62583 30300 ft 431 kts 336°
2026-05-07 17:50 54.52573 -2.64535 29789 ft 428 kts 336°
2026-05-07 17:51 54.55319 -2.66479 29282 ft 425 kts 336°
2026-05-07 17:51 54.58037 -2.68408 28797 ft 421 kts 336°
2026-05-07 17:51 54.60734 -2.70330 28332 ft 417 kts 335°
2026-05-07 17:51 54.63399 -2.72231 27858 ft 413 kts 335°
2026-05-07 17:52 54.66044 -2.74116 27394 ft 409 kts 335°
2026-05-07 17:52 54.68666 -2.75983 26945 ft 405 kts 335°
2026-05-07 17:52 54.71260 -2.77836 26506 ft 402 kts 335°
2026-05-07 17:52 54.73833 -2.79678 26091 ft 398 kts 335°
2026-05-07 17:53 54.76387 -2.81506 25963 ft 397 kts 335°
2026-05-07 17:53 54.78947 -2.83340 25987 ft 399 kts 335°
2026-05-07 17:53 54.81518 -2.85185 25990 ft 400 kts 335°
2026-05-07 17:53 54.84088 -2.87033 25977 ft 400 kts 335°
2026-05-07 17:54 54.86659 -2.88888 25978 ft 400 kts 335°
2026-05-07 17:54 54.89202 -2.90723 25979 ft 391 kts 335°
2026-05-07 17:54 54.91708 -2.92532 25982 ft 389 kts 335°
2026-05-07 17:54 54.94173 -2.94308 25976 ft 388 kts 335°
2026-05-07 17:55 54.96649 -2.96097 25527 ft 383 kts 335°
2026-05-07 17:55 54.99094 -2.97866 24858 ft 379 kts 334°
2026-05-07 17:55 55.01513 -2.99617 24200 ft 374 kts 334°
2026-05-07 17:55 55.03911 -3.01355 23401 ft 375 kts 334°
2026-05-07 17:56 55.06319 -3.03111 22509 ft 374 kts 334°
2026-05-07 17:56 55.08705 -3.04857 21723 ft 370 kts 334°
2026-05-07 17:56 55.11065 -3.06588 21006 ft 366 kts 334°
2026-05-07 17:56 55.13407 -3.08306 20453 ft 364 kts 334°
2026-05-07 17:57 55.15735 -3.10014 20028 ft 361 kts 334°
2026-05-07 17:57 55.17259 -3.11129 19834 ft 355 kts 334°
2026-05-07 17:57 55.20273 -3.13329 19430 ft 347 kts 334°
2026-05-07 17:57 55.22493 -3.14956 19025 ft 344 kts 334°
2026-05-07 17:58 55.24693 -3.16576 18556 ft 341 kts 333°
2026-05-07 17:58 55.26877 -3.18187 18021 ft 339 kts 333°
2026-05-07 17:58 55.29094 -3.19567 17457 ft 339 kts 344°
2026-05-07 17:58 55.31398 -3.20096 16896 ft 338 kts 357°
2026-05-07 17:59 55.33745 -3.19827 16260 ft 337 kts
2026-05-07 17:59 55.36069 -3.19445 15660 ft 334 kts
2026-05-07 17:59 55.38370 -3.19081 15076 ft 331 kts
2026-05-07 17:59 55.40653 -3.18731 14513 ft 328 kts
2026-05-07 18:00 55.42915 -3.18387 13961 ft 324 kts
2026-05-07 18:00 55.45153 -3.18044 13354 ft 322 kts
2026-05-07 18:00 55.47373 -3.17699 12754 ft 319 kts
2026-05-07 18:00 55.49574 -3.17350 12178 ft 316 kts
2026-05-07 18:01 55.51756 -3.17002 11605 ft 313 kts
2026-05-07 18:01 55.53921 -3.16656 11039 ft 311 kts
2026-05-07 18:01 55.56065 -3.16317 10499 ft 308 kts
2026-05-07 18:01 55.58187 -3.15982 9951 ft 305 kts
2026-05-07 18:02 55.62353 -3.15330 8813 ft 300 kts
2026-05-07 18:02 55.64420 -3.15002 8253 ft 297 kts
2026-05-07 18:02 55.66473 -3.14676 7685 ft 295 kts
2026-05-07 18:03 55.68474 -3.14358 7503 ft 280 kts
2026-05-07 18:03 55.70386 -3.14052 7151 ft 273 kts
2026-05-07 18:03 55.72268 -3.13754 6950 ft 275 kts
2026-05-07 18:03 55.74214 -3.13425 6887 ft 280 kts
2026-05-07 18:04 55.76025 -3.12222 6495 ft 278 kts 27°
2026-05-07 18:04 55.77701 -3.10538 6187 ft 276 kts 29°
2026-05-07 18:04 55.79350 -3.08802 5839 ft 274 kts 30°
2026-05-07 18:04 55.80994 -3.07072 5309 ft 280 kts 30°
2026-05-07 18:05 55.82690 -3.05285 4826 ft 285 kts 30°
2026-05-07 18:05 55.84397 -3.03482 4421 ft 285 kts 30°
2026-05-07 18:05 55.86102 -3.01687 4061 ft 283 kts 30°
2026-05-07 18:05 55.87794 -2.99912 4003 ft 284 kts 30°
2026-05-07 18:06 55.89507 -2.98136 4005 ft 286 kts 30°
2026-05-07 18:06 55.91226 -2.96337 4009 ft 286 kts 30°
2026-05-07 18:06 55.92935 -2.94534 4012 ft 286 kts 30°
2026-05-07 18:06 55.94624 -2.92745 4011 ft 286 kts 30°
2026-05-07 18:07 55.96373 -2.91067 4009 ft 284 kts 17°
2026-05-07 18:07 55.98300 -2.90663 4010 ft 278 kts 348°
2026-05-07 18:07 56.00112 -2.91688 4010 ft 272 kts 332°
2026-05-07 18:07 56.01831 -2.93107 4010 ft 271 kts 330°
2026-05-07 18:08 56.03531 -2.94561 4007 ft 271 kts 330°
2026-05-07 18:08 56.05150 -2.96217 3950 ft 264 kts 314°
2026-05-07 18:08 56.06211 -2.98761 3584 ft 251 kts 286°
2026-05-07 18:08 56.06474 -3.01700 3408 ft 232 kts 261°
2026-05-07 18:09 56.06054 -3.04353 3269 ft 216 kts 239°
2026-05-07 18:09 56.05300 -3.06637 3044 ft 208 kts 236°
2026-05-07 18:09 56.04576 -3.08791 3002 ft 198 kts 236°
2026-05-07 18:09 56.03880 -3.10867 3003 ft 196 kts 236°
2026-05-07 18:10 56.03179 -3.12959 2981 ft 196 kts 236°
2026-05-07 18:10 56.02476 -3.15057 2810 ft 189 kts 236°
2026-05-07 18:10 56.01828 -3.16988 2575 ft 179 kts 236°
2026-05-07 18:10 56.01204 -3.18847 2348 ft 167 kts 235°
2026-05-07 18:11 56.00639 -3.20533 2123 ft 150 kts 234°
2026-05-07 18:11 56.00287 -3.21579 1984 ft 144 kts 234°
2026-05-07 18:11 55.99611 -3.23587 1732 ft 138 kts 233°
2026-05-07 18:11 55.99118 -3.25050 1538 ft 136 kts 234°
2026-05-07 18:12 55.98629 -3.26497 1352 ft 136 kts 234°
2026-05-07 18:12 55.98146 -3.27929 1172 ft 134 kts 235°
2026-05-07 18:12 55.97665 -3.29354 974 ft 134 kts 235°
2026-05-07 18:12 55.97185 -3.30777 794 ft 135 kts 236°
2026-05-07 18:13 55.96704 -3.32203 620 ft 133 kts 236°
2026-05-07 18:13 55.96220 -3.33647 408 ft 136 kts 237°
2026-05-07 18:13 55.95750 -3.35058 259 ft 135 kts 237°
2026-05-07 18:13 55.95248 -3.36511 122 ft 131 kts 236°
2026-05-07 18:14 55.94871 -3.37617 114 ft 64 kts 239°
2026-05-07 18:14 55.94771 -3.37918 114 ft 15 kts 239°
2026-05-07 18:14 55.94735 -3.38017 115 ft 6 kts 228°
2026-05-07 18:14 55.94692 -3.38040 114 ft 7 kts 169°
2026-05-07 18:15 55.94668 -3.38023 114 ft 0 kts 156°
2026-05-07 18:16 55.94645 -3.38005 115 ft 7 kts 156°
2026-05-07 18:16 55.94594 -3.37935 114 ft 13 kts 116°
2026-05-07 18:16 55.94633 -3.37760 114 ft 19 kts 57°
2026-05-07 18:16 55.94708 -3.37543 115 ft 14 kts 59°
2026-05-07 18:17 55.94769 -3.37357 114 ft 21 kts 59°
2026-05-07 18:17 55.94849 -3.37117 113 ft 23 kts 59°
2026-05-07 18:17 55.94885 -3.37008 113 ft 4 kts 59°
2026-05-07 18:17 55.94913 -3.36927 114 ft 10 kts 58°
2026-05-07 18:18 55.94934 -3.36851 115 ft 10 kts 78°
2026-05-07 18:18 55.94896 -3.36765 115 ft 9 kts 96°
2026-05-07 18:18 55.94934 -3.36630 113 ft 16 kts 58°
2026-05-07 18:18 55.94949 -3.36586 113 ft 3 kts 58°
2026-05-07 18:19 55.94951 -3.36534 114 ft 5 kts 142°
2026-05-07 18:19 55.94924 -3.36511 112 ft 3 kts 154°
2026-05-07 18:19 55.94907 -3.36496 115 ft 4 kts 154°
2026-05-07 18:19 55.94903 -3.36493 115 ft 0 kts 154°